Home   Weather   Lennestadt   Past weeks

Flag for Germany Past Weather in Lennestadt, North Rhine-Westphalia, Germany — Yesterday and Last 2 Weeks

Now
63 °F

Passing clouds.


Feels Like: 63 °F
Forecast: 56 / 66 °F
Wind: 7 mph from South

Location: Hessen

Current Time: Jul 22, 2017 at 10:57:56 am

Latest Report: Jul 22, 2017 at 9:50 am


Visibility: N/A

Pressure: 29.98 "Hg

Humidity: 100%

Dew Point: 63 °F

Location of LennestadtLocation

Past Weather in Lennestadt — Graph

°F

Lennestadt Temperature Yesterday

Maximum temperature yesterday: 72 °F (at 4:50 pm)
Minimum temperature yesterday: 55 °F (at 6:50 am)
Average temperature yesterday: 65 °F

High & Low Weather Summary for the Past Weeks

 TemperatureHumidityPressure
High82 °F (Jul 19, 2:50 pm)100% (Jul 9, 7:50 am)30.27 "Hg (Jul 9, 7:50 am)
Low48 °F (Jul 13, 7:20 am)45% (Jul 7, 4:50 pm)29.77 "Hg (Jul 12, 2:50 pm)
Average65 °F75%30.04 "Hg
* Reported Jul 7 9:20 am — Jul 22 9:50 am, Lennestadt. Weather by CustomWeather, © 2017

Note: Actual official high and low records may vary slightly from our data, if they occured in-between our weather recording intervals... More about our weather records

Advertising

Lennestadt Weather History for the Previous 24 Hours

Scroll right to see more
 ConditionsComfort  
Time TempWeatherWind HumidityBarometerVisibility
9:50 am
Sat, Jul 22
63 °FPassing clouds.7 mph100%29.98 "HgN/A
9:20 am63 °FPassing clouds.7 mph100%29.95 "HgN/A
8:50 am61 °FScattered clouds.8 mph100%29.95 "HgN/A
7:50 am59 °FPartly sunny.6 mph100%29.95 "HgN/A
8:50 pm
Fri, Jul 21
66 °FSunny.7 mph68%29.95 "Hg10 mi
8:20 pm68 °FSunny.6 mph64%29.95 "Hg10 mi
7:50 pm68 °FSunny.6 mph64%29.92 "Hg10 mi
7:20 pm70 °FSunny.7 mph60%29.92 "Hg10 mi
6:50 pm72 °FSunny.3 mph57%29.92 "Hg10 mi
6:20 pm72 °FSunny.7 mph53%29.95 "Hg10 mi
5:50 pm70 °FPassing clouds.7 mph60%29.95 "HgN/A
5:20 pm70 °FPassing clouds.6 mph57%29.95 "HgN/A
4:50 pm72 °FSunny.7 mph57%29.98 "Hg10 mi
4:20 pm70 °FPassing clouds.6 mph57%29.98 "HgN/A
3:50 pm70 °FPassing clouds.6 mph57%29.98 "HgN/A
3:20 pm68 °FScattered clouds.2 mph56%29.98 "HgN/A
2:50 pm68 °FScattered clouds.6 mph56%29.98 "HgN/A
2:20 pm68 °FScattered clouds.8 mph56%29.98 "HgN/A
1:50 pm64 °FScattered clouds.7 mph60%30.01 "HgN/A
1:20 pm64 °FScattered clouds.8 mph60%30.01 "HgN/A
12:50 pm64 °FScattered clouds.6 mph60%30.01 "HgN/A
12:20 pm66 °FScattered clouds.9 mph56%30.01 "HgN/A
11:50 am64 °FScattered clouds.7 mph60%30.01 "HgN/A
11:20 am63 °FScattered clouds.5 mph68%30.01 "HgN/A
10:50 am63 °FScattered clouds.9 mph68%30.01 "HgN/A
10:20 am63 °FScattered clouds.5 mph64%30.01 "HgN/A
Weather by CustomWeather, © 2017

See weather overviewHow to use our weather pages